Weather History for KARV - April, 2014

Change the Weather History Date:

Sunday, April 6, 2014

  Actual Average Record
Temperature  
Mean Temperature 43 °F -  
Max Temperature 53 °F 45 °F 74 °F (1991)
Min Temperature 34 °F 22 °F -6 °F (1950)
Degree Days  
Heating Degree Days 22    
Moisture  
Dew Point 30 °F    
Average Humidity 62    
Maximum Humidity 84    
Minimum Humidity 45    
Precipitation  
Precipitation 0.00 in - - ()
Sea Level Pressure  
Sea Level Pressure 29.89 in    
Wind  
Wind Speed 6 mph (SSW)    
Max Wind Speed 16 mph    
Max Gust Speed 24 mph    
Visibility 10 miles    
Events      
Averages and records for this station are not official NWS values.
T = Trace of Precipitation, MM = Missing Value Source: NWS Daily Summary

Daily Weather History Graph

Daily Weather History Graph

Search for Another Location

Airport or City:

Trip Planner

Search our weather history database for the weather conditions in past years. The results will help you decide how hot, cold, wet, or windy it might be!

Date:

Astronomy

Apr. 06, 2014 Rise Set
Actual Time 6:29 AM CDT 7:34 PM CDT
Civil Twilight 5:58 AM CDT 8:04 PM CDT
Nautical Twilight 5:22 AM CDT 8:41 PM CDT
Astronomical Twilight 4:43 AM CDT 9:20 PM CDT
Moon 11:20 AM CDT (4/6) 1:40 AM CDT (4/6)
Length of Visible Light 14h 05m
Length of Day
13h 04m
Waxing Crescent, 44% of the Moon is Illuminated
Apr 6
Waxing Crescent
Apr 7
First Quarter
Apr 15
Full
Apr 22
Last Quarter
Apr 29
New

Hourly Weather History & Observations

Time (CDT) Temp. Windchill Dew Point Humidity Pressure Visibility Wind Dir Wind Speed Gust Speed Precip Events Conditions
12:15 AM 36.5 °F 32.7 °F 27.9 °F 71% 29.98 in 10.0 mi South 4.6 mph - N/A   Overcast
12:35 AM 36.5 °F 32.7 °F 26.6 °F 67% 29.99 in 10.0 mi WSW 4.6 mph - N/A   Overcast
12:55 AM 36.5 °F - 27.1 °F 69% 29.99 in 10.0 mi Calm Calm - N/A   Overcast
1:15 AM 36.5 °F 32.7 °F 27.5 °F 70% 29.99 in 10.0 mi SSW 4.6 mph - N/A   Mostly Cloudy
1:35 AM 36.5 °F - 28.4 °F 72% 29.99 in 10.0 mi Calm Calm - N/A   Mostly Cloudy
1:55 AM 36.5 °F 33.9 °F 28.0 °F 71% 29.99 in 10.0 mi SSE 3.5 mph - N/A   Overcast
2:15 AM 36.1 °F 33.5 °F 28.9 °F 75% 29.98 in 10.0 mi SSE 3.5 mph - N/A   Overcast
2:35 AM 34.7 °F 31.8 °F 28.0 °F 77% 29.98 in 10.0 mi South 3.5 mph - N/A   Overcast
2:55 AM 36.5 °F 33.9 °F 28.8 °F 74% 29.98 in 10.0 mi South 3.5 mph - N/A   Overcast
3:15 AM 36.5 °F 32.7 °F 28.2 °F 72% 29.96 in 10.0 mi South 4.6 mph - N/A   Overcast
3:35 AM 36.5 °F 31.8 °F 27.9 °F 71% 29.96 in 10.0 mi South 5.8 mph - N/A   Overcast
3:55 AM 36.5 °F - 27.7 °F 70% 29.96 in 10.0 mi Calm Calm - N/A   Overcast
4:15 AM 36.5 °F - 27.9 °F 71% 29.96 in 10.0 mi Calm Calm - N/A   Overcast
4:35 AM 36.5 °F 33.9 °F 28.4 °F 72% 29.96 in 10.0 mi SE 3.5 mph - N/A   Overcast
4:55 AM 36.5 °F - 28.2 °F 72% 29.96 in 10.0 mi Calm Calm - N/A   Overcast
5:15 AM 36.5 °F 33.9 °F 27.7 °F 70% 29.95 in 10.0 mi SSE 3.5 mph - N/A   Overcast
5:35 AM 36.5 °F 33.9 °F 28.0 °F 71% 29.95 in 10.0 mi South 3.5 mph - N/A   Overcast
5:55 AM 36.5 °F 32.7 °F 28.4 °F 72% 29.95 in 10.0 mi South 4.6 mph - N/A   Scattered Clouds
6:15 AM 36.5 °F 32.7 °F 28.0 °F 71% 29.95 in 10.0 mi South 4.6 mph - N/A   Mostly Cloudy
6:35 AM 36.5 °F 33.9 °F 27.3 °F 69% 29.95 in 10.0 mi South 3.5 mph - N/A   Overcast
6:55 AM 36.5 °F 32.7 °F 27.3 °F 69% 29.95 in 10.0 mi South 4.6 mph - N/A   Overcast
7:15 AM 37.2 °F 31.9 °F 27.5 °F 68% 29.95 in 10.0 mi South 6.9 mph - N/A   Overcast
7:35 AM 38.1 °F 32.3 °F 28.4 °F 68% 29.95 in 10.0 mi South 8.1 mph - N/A   Overcast
7:55 AM 39.2 °F 33.6 °F 29.7 °F 69% 29.95 in 10.0 mi South 8.1 mph - N/A   Overcast
8:15 AM 39.2 °F 33.6 °F 29.3 °F 68% 29.95 in 10.0 mi South 8.1 mph - N/A   Mostly Cloudy
8:35 AM 39.2 °F 32.5 °F 28.4 °F 65% 29.94 in 10.0 mi South 10.4 mph - N/A   Mostly Cloudy
8:55 AM 39.2 °F 33.6 °F 28.2 °F 65% 29.93 in 10.0 mi South 8.1 mph - N/A   Scattered Clouds
9:15 AM 41.5 °F 35.9 °F 29.3 °F 62% 29.92 in 10.0 mi SSW 9.2 mph - N/A   Clear
9:35 AM 41.5 °F 34.6 °F 29.1 °F 61% 29.92 in 10.0 mi SSW 12.7 mph 17.3 mph N/A   Clear
9:55 AM 41.7 °F 35.6 °F 28.9 °F 61% 29.91 in 10.0 mi South 10.4 mph - N/A   Clear
10:15 AM 42.8 °F 36.6 °F 29.5 °F 59% 29.91 in 10.0 mi SSW 11.5 mph - N/A   Clear
10:55 AM 44.1 °F 38.1 °F 29.5 °F 57% 29.90 in 10.0 mi South 11.5 mph - N/A   Clear
11:15 AM 44.6 °F 37.4 °F 29.5 °F 55% 29.89 in 10.0 mi SSW 16.1 mph 20.7 mph N/A   Clear
11:35 AM 45.9 °F 40.8 °F 29.7 °F 53% 29.88 in 10.0 mi SSW 10.4 mph - N/A   Scattered Clouds
11:55 AM 46.8 °F - 30.0 °F 52% 29.87 in 10.0 mi SSW 13.8 mph - N/A   Mostly Cloudy
12:15 PM 48.9 °F - 31.1 °F 50% 29.86 in 10.0 mi South 13.8 mph 18.4 mph N/A   Mostly Cloudy
12:35 PM 49.3 °F - 30.9 °F 49% 29.85 in 10.0 mi South 11.5 mph - N/A   Scattered Clouds
12:55 PM 50.0 °F - 31.1 °F 48% 29.84 in 10.0 mi South 16.1 mph - N/A   Scattered Clouds
1:15 PM 51.8 °F - 32.0 °F 47% 29.84 in 10.0 mi SW 9.2 mph 18.4 mph N/A   Scattered Clouds
1:35 PM 51.8 °F - 32.0 °F 47% 29.84 in 10.0 mi SSW 15.0 mph 18.4 mph N/A   Scattered Clouds
1:55 PM 51.8 °F - 31.8 °F 47% 29.84 in 10.0 mi SW 11.5 mph 18.4 mph N/A   Clear
2:15 PM 51.8 °F - 32.2 °F 47% 29.83 in 10.0 mi SSW 11.5 mph 21.9 mph N/A   Clear
2:35 PM 51.8 °F - 31.8 °F 47% 29.83 in 10.0 mi SSW 12.7 mph 21.9 mph N/A   Clear
2:55 PM 51.8 °F - 31.8 °F 47% 29.83 in 10.0 mi SSW 16.1 mph 24.2 mph N/A   Clear
3:15 PM 51.8 °F - 31.1 °F 45% 29.82 in 10.0 mi SW 15.0 mph 21.9 mph N/A   Clear
3:35 PM 51.8 °F - 31.1 °F 45% 29.82 in 10.0 mi SW 12.7 mph 20.7 mph N/A   Clear
3:55 PM 51.8 °F - 31.3 °F 46% 29.82 in 10.0 mi SSW 16.1 mph 20.7 mph N/A   Clear
4:15 PM 51.8 °F - 31.6 °F 46% 29.82 in 10.0 mi SW 10.4 mph 17.3 mph N/A   Clear
4:35 PM 51.8 °F - 32.0 °F 47% 29.81 in 10.0 mi SSW 10.4 mph 19.6 mph N/A   Clear
4:55 PM 51.8 °F - 32.0 °F 47% 29.81 in 10.0 mi SSW 9.2 mph - N/A   Clear
5:15 PM 52.3 °F - 32.2 °F 46% 29.81 in 10.0 mi SSW 10.4 mph - N/A   Clear
5:35 PM 52.0 °F - 32.2 °F 47% 29.81 in 10.0 mi SSW 10.4 mph - N/A   Clear
5:55 PM 52.0 °F - 32.5 °F 48% 29.81 in 10.0 mi SSW 5.8 mph - N/A   Clear
6:15 PM 52.7 °F - 32.7 °F 47% 29.81 in 10.0 mi SSW 6.9 mph - N/A   Clear
6:35 PM 51.8 °F - 33.8 °F 50% 29.81 in 10.0 mi SSW 5.8 mph - N/A   Clear
6:55 PM 51.8 °F - 34.9 °F 53% 29.81 in 10.0 mi SSW 4.6 mph - N/A   Clear
7:15 PM 51.8 °F - 34.2 °F 51% 29.81 in 10.0 mi Calm Calm - N/A   Clear
7:35 PM 45.7 °F - 32.2 °F 59% 29.81 in 10.0 mi Calm Calm - N/A   Clear
7:55 PM 49.3 °F - 34.5 °F 57% 29.82 in 10.0 mi Calm Calm - N/A   Clear
8:15 PM 43.0 °F - 32.5 °F 67% 29.82 in 10.0 mi Calm Calm - N/A   Clear
8:35 PM 41.7 °F - 32.2 °F 69% 29.83 in 10.0 mi Calm Calm - N/A   Clear
8:55 PM 40.8 °F - 33.1 °F 74% 29.83 in 10.0 mi Calm Calm - N/A   Scattered Clouds
9:15 PM 41.5 °F - 32.9 °F 71% 29.84 in 10.0 mi Calm Calm - N/A   Mostly Cloudy
9:35 PM 39.4 °F - 32.0 °F 75% 29.84 in 10.0 mi Calm Calm - N/A   Mostly Cloudy
9:55 PM 39.2 °F - 31.8 °F 75% 29.84 in 10.0 mi Calm Calm - N/A   Mostly Cloudy
10:15 PM 39.2 °F - 32.2 °F 76% 29.84 in 10.0 mi Calm Calm - N/A   Mostly Cloudy
10:35 PM 38.5 °F - 32.2 °F 78% 29.84 in 10.0 mi Calm Calm - N/A   Scattered Clouds
11:15 PM 38.1 °F - 32.4 °F 80% 29.84 in 10.0 mi Calm Calm - N/A   Scattered Clouds
11:35 PM 36.5 °F - 32.0 °F 84% 29.84 in 10.0 mi Calm Calm - N/A   Clear
11:55 PM 36.5 °F - 31.6 °F 83% 29.84 in 7.0 mi Calm Calm - N/A   Clear